This is the latest recevied weather packets stored in our database for station/object KE0FIN. If no packets are shown the sender has not sent any weather packets the latest 1 day(s).
| Time | Temp. | Humidity | Pressure | Rain* | Wind** | Luminosity | Snow |
|---|---|---|---|---|---|---|---|
| 1778043257 | 7.78° C | 83% | 1066.2 hPa | 0 mm | - | 0 W/m² | - |
| 1778042954 | 7.78° C | 83% | 1066.8 hPa | 0 mm | - | 0 W/m² | - |
| 1778042652 | 8.33° C | 83% | 1066.4 hPa | 0 mm | - | 0 W/m² | - |
| 1778042046 | 8.33° C | 83% | 1066.2 hPa | 0 mm | - | 0 W/m² | - |
| 1778041744 | 8.33° C | 84% | 1066.3 hPa | 0 mm | - | 0 W/m² | - |
| 1778041443 | 8.33° C | 83% | 1066.4 hPa | 0 mm | - | 0 W/m² | - |
| 1778041141 | 8.89° C | 82% | 1066.3 hPa | 0 mm | - | 0 W/m² | - |
| 1778040535 | 8.89° C | 79% | 1066.3 hPa | 0 mm | - | 0 W/m² | - |
| 1778040232 | 8.89° C | 78% | 1066.1 hPa | 0 mm | - | 0 W/m² | - |
| 1778039928 | 9.44° C | 77% | 1066.4 hPa | 0 mm | - | 0 W/m² | - |
| 1778039626 | 9.44° C | 75% | 1066.4 hPa | 0 mm | - | 0 W/m² | - |
| 1778039323 | 9.44° C | 75% | 1066.3 hPa | 0 mm | - | 0 W/m² | - |
| 1778039020 | 9.44° C | 75% | 1065.9 hPa | 0 mm | - | 0 W/m² | - |
| 1778038717 | 9.44° C | 76% | 1066.1 hPa | 0 mm | - | 0 W/m² | - |
| 1778038414 | 9.44° C | 75% | 1065.8 hPa | 0 mm | - | 0 W/m² | - |
| 1778037504 | 9.44° C | 76% | 1065.9 hPa | 0 mm | - | 0 W/m² | - |
| 1778037202 | 8.89° C | 78% | 1065.8 hPa | 0 mm | - | 0 W/m² | - |
| 1778036899 | 8.33° C | 82% | 1065.8 hPa | 0 mm | - | 0 W/m² | - |
| 1778036597 | 7.78° C | 93% | 1065.8 hPa | 0 mm | - | 0 W/m² | - |
| 1778035990 | 8.33° C | 98% | 1065.9 hPa | 0 mm | - | 0 W/m² | - |
| 1778035384 | 8.89° C | 98% | 1065.7 hPa | 0 mm | - | 0 W/m² | - |
| 1778035080 | 8.89° C | 97% | 1065.8 hPa | 0 mm | - | 0 W/m² | - |
| 1778034473 | 8.89° C | 97% | 1065.7 hPa | 0 mm | - | 0 W/m² | - |
| 1778034172 | 8.89° C | 96% | 1065.5 hPa | 0 mm | - | 0 W/m² | - |
| 1778033869 | 8.89° C | 96% | 1065.5 hPa | 0 mm | - | 0 W/m² | - |
* Rain latest hour (hover to see other rain measurements)
** Current wind speed in m/s (hover to see current wind gust speed)